Amarillo, TX

10:23 PM CST on December 08, 2019 (GMT -0600)
Amarillo International

Weather History for KAMA - June, 2019

Change the Weather History Date:

Sunday, June 2, 2019

  Actual Average Record
Temperature  
Mean Temperature 69 °F 71 °F  
Max Temperature 79 °F 84 °F 106 °F (2008)
Min Temperature 58 °F 57 °F 38 °F (1917)
Degree Days  
Heating Degree Days 0 1  
Month to date heating degree days 0 2  
Since 1 June heating degree days 0 2  
Since 1 July heating degree days 4102 4173  
Cooling Degree Days 4 6  
Month to date cooling degree days 11 12  
Year to date cooling degree days 73 137  
Since 1 June cooling degree days 11 12  
Growing Degree Days 18 (Base 50)    
Moisture  
Dew Point 60 °F    
Average Humidity 75    
Maximum Humidity 93    
Minimum Humidity 56    
Precipitation  
Precipitation 0.03 in 0.12 in 1.94 in (1895)
Month to date precipitation 1.25 0.23  
Year to date precipitation 9.03 6.59  
Snow  
Snow 0.00 in 0.00 in T in (1989)
Month to date snowfall 0.0 0.0  
Since 1 June snowfall 0.0 0.0  
Since 1 July snowfall 8.1 17.8  
Snow Depth 0.00 in    
Sea Level Pressure  
Sea Level Pressure 29.90 in    
Wind  
Wind Speed 11 mph (ESE)    
Max Wind Speed 22 mph    
Max Gust Speed 27 mph    
Visibility 10 miles    
Events      
T = Trace of Precipitation, MM = Missing Value Source: NWS Daily Summary

Daily Weather History Graph

Daily Weather History Graph

Search for Another Location

Airport or City:

Astronomy

Jun. 02, 2019 Rise Set
Actual Time 6:33 AM CDT 8:56 PM CDT
Civil Twilight 6:03 AM CDT 9:26 PM CDT
Nautical Twilight 5:27 AM CDT 10:02 PM CDT
Astronomical Twilight 4:48 AM CDT 10:41 PM CDT
Moon 6:10 AM CDT (6/2) 8:20 PM CDT (6/2)
Length of Visible Light 15h 22m
Length of Day
14h 23m
Waning Crescent, 1% of the Moon is Illuminated
Jun 2
Waning Crescent
Jun 3
New
Jun 10
First Quarter
Jun 17
Full
Jun 25
Last Quarter

Hourly Weather History & Observations

Time (CDT) Temp. Dew Point Humidity Pressure Visibility Wind Dir Wind Speed Gust Speed Precip Events Conditions
12:53 AM 62.1 °F 54.0 °F 75% 29.86 in 10.0 mi East 21.9 mph - 0.00 in   Mostly Cloudy
1:53 AM 62.1 °F 54.0 °F 75% 29.85 in 10.0 mi ESE 18.4 mph - 0.00 in   Overcast
2:53 AM 61.0 °F 55.0 °F 81% 29.85 in 10.0 mi SE 11.5 mph - N/A   Overcast
3:53 AM 61.0 °F 54.0 °F 78% 29.84 in 10.0 mi SSE 12.7 mph - 0.03 in   Mostly Cloudy
4:53 AM 62.1 °F 53.1 °F 72% 29.92 in 10.0 mi NNE 13.8 mph - N/A   Mostly Cloudy
5:53 AM 60.1 °F 57.0 °F 90% 29.95 in 10.0 mi NNW 5.8 mph - N/A   Mostly Cloudy
6:53 AM 59.0 °F 57.0 °F 93% 29.94 in 8.0 mi North 6.9 mph - N/A   Mostly Cloudy
7:53 AM 61.0 °F 57.0 °F 87% 29.96 in 10.0 mi NNW 8.1 mph - N/A   Clear
8:53 AM 62.1 °F 57.9 °F 86% 29.97 in 10.0 mi North 6.9 mph - N/A   Clear
9:53 AM 64.9 °F 57.9 °F 78% 29.98 in 10.0 mi NNW 9.2 mph - N/A   Clear
10:53 AM 69.1 °F 59.0 °F 70% 29.97 in 10.0 mi NW 8.1 mph - N/A   Clear
11:53 AM 72.0 °F 59.0 °F 64% 29.97 in 10.0 mi NNW 6.9 mph - N/A   Clear
12:53 PM 73.9 °F 60.1 °F 62% 29.97 in 10.0 mi Variable 6.9 mph - N/A   Clear
1:53 PM 75.0 °F 60.1 °F 60% 29.94 in 10.0 mi SE 5.8 mph - N/A   Partly Cloudy
2:53 PM 77.0 °F 61.0 °F 58% 29.91 in 10.0 mi SE 6.9 mph - N/A   Scattered Clouds
3:53 PM 78.1 °F 63.0 °F 60% 29.89 in 10.0 mi SSE 8.1 mph - N/A   Scattered Clouds
4:53 PM 77.0 °F 64.9 °F 66% 29.87 in 10.0 mi SSE 15.0 mph 25.3 mph N/A   Partly Cloudy
5:53 PM 75.9 °F 64.0 °F 67% 29.86 in 10.0 mi SSE 17.3 mph - N/A   Partly Cloudy
6:53 PM 75.0 °F 64.0 °F 69% 29.86 in 10.0 mi SSE 15.0 mph - N/A   Clear
7:53 PM 75.0 °F 64.0 °F 69% 29.82 in 10.0 mi SSE 15.0 mph - N/A   Clear
8:53 PM 71.1 °F 64.0 °F 78% 29.85 in 10.0 mi SE 10.4 mph - N/A   Clear
9:53 PM 70.0 °F 64.0 °F 81% 29.85 in 10.0 mi ESE 12.7 mph - N/A   Clear
10:53 PM 70.0 °F 64.0 °F 81% 29.88 in 10.0 mi SE 17.3 mph - N/A   Clear
11:53 PM 69.1 °F 64.0 °F 84% 29.89 in 10.0 mi East 11.5 mph - N/A   Clear